DateTimeUTC,F1_A11,F1_S11,BsB_S11,BsG_S11,BsR_S11,BbsB_S11,BbsG_S11,BbsR_S11,BaB_A11,BaG_A11,BaR_A11,Tu_S11,T_S11,Uu_S11,U_S11,P_S11,T1_A11
2021-12-29T16:00:00Z,00000200,21000000,,,,,,,-000.11,0000.22,-000.01,19.1,26.2,,00.0,0648.8,31.1
2021-12-29T16:01:00Z,00000200,21000000,,,,,,,-000.02,0000.45,0000.09,19.1,26.2,,00.0,0648.8,31.1
2021-12-29T16:02:00Z,00000200,21000000,,,,,,,0000.12,-000.24,-000.25,19.1,26.2,,00.0,0648.8,31.1
2021-12-29T16:03:00Z,00000200,61000000,,,,,,,0000.30,0000.15,0000.56,19.1,26.2,,00.0,0648.8,31.1
2021-12-29T16:04:00Z,00000200,41000000,0000.57,0000.27,0000.01,0000.20,0000.42,0000.01,-000.04,0000.26,-000.12,19.4,26.1,,00.0,0649.7,31.1
2021-12-29T16:05:00Z,00000200,01000000,0000.95,0000.46,0000.41,0000.25,0000.55,0000.04,0000.09,-000.23,-000.44,19.5,26.1,,00.0,0649.7,31.2
2021-12-29T16:06:00Z,00000200,01000000,0000.37,0000.29,0000.09,0000.60,0000.40,-000.01,0000.05,-000.02,0000.20,19.4,26.1,,00.0,0649.7,31.1
2021-12-29T16:07:00Z,00000200,01000000,0001.38,0000.62,0000.11,0000.26,0000.17,-000.04,0000.32,0000.10,0000.41,19.4,26.0,,00.0,0649.7,31.1
2021-12-29T16:08:00Z,00000200,01000000,0001.06,0000.08,-000.17,0000.13,0000.03,0000.14,0000.19,0000.46,0000.19,19.4,26.0,,00.0,0649.7,31.1
2021-12-29T16:09:00Z,00000200,01000000,0000.74,0000.46,-000.18,0000.22,0000.30,-000.13,0000.19,-000.18,0000.19,19.5,26.0,,00.0,0649.7,31.1
2021-12-29T16:10:00Z,00000200,01000000,0000.49,0000.68,0000.28,0000.15,0000.21,0000.09,-000.05,0000.29,-000.04,19.5,26.0,,00.0,0649.7,31.1
2021-12-29T16:11:00Z,00000200,01000000,0000.74,0000.52,0000.39,0000.58,0000.38,0000.18,0000.09,-000.08,-000.10,19.5,26.0,,00.0,0649.8,31.1
2021-12-29T16:12:00Z,00000200,01000000,0000.30,0000.46,0000.49,-000.23,0000.11,0000.31,0000.26,0000.47,0000.57,19.5,26.1,,00.0,0649.7,31.1
2021-12-29T16:13:00Z,00000200,01000000,0001.29,0000.67,0000.21,0000.39,0000.27,-000.17,0000.61,0000.51,0000.09,19.5,26.0,,00.0,0649.8,31.1
2021-12-29T16:14:00Z,00000200,01000000,0000.26,0000.07,0000.13,0000.37,-000.10,0000.13,0000.29,-000.19,0000.03,19.6,26.1,,00.0,0649.8,31.1
2021-12-29T16:15:00Z,00000200,01000000,0000.21,0000.61,-000.22,0000.31,0000.17,0000.05,0000.14,0000.95,0000.19,19.6,26.1,,00.0,0649.8,31.1
2021-12-29T16:16:00Z,00000200,01000000,0000.82,0000.31,-000.12,0000.31,0000.15,0000.06,-000.22,-000.68,-000.07,19.6,26.1,,00.0,0649.8,31.1
2021-12-29T16:17:00Z,00000200,01000000,-000.12,0000.34,-000.09,0000.14,0000.35,0000.11,0000.03,0000.07,0000.02,19.6,26.1,,00.0,0649.8,31.1
2021-12-29T16:18:00Z,00000200,01000000,0000.41,0000.15,-000.03,0000.10,0000.11,-000.04,0000.43,0000.03,0000.35,19.7,26.1,,00.0,0649.8,31.1
2021-12-29T16:19:00Z,00000200,01000000,0000.61,0000.04,-000.02,0000.13,0000.34,-000.27,-000.27,0000.21,-000.17,19.7,26.1,,00.0,0649.8,31.1
2021-12-29T16:20:00Z,00000200,01000000,0000.86,0000.46,0000.22,0000.10,0000.08,-000.10,-000.42,-000.08,-000.21,19.6,26.1,,00.0,0649.8,31.1
2021-12-29T16:21:00Z,00000200,01000000,0000.77,0000.43,0000.05,0000.00,0000.38,0000.17,0000.21,-000.22,0000.07,19.6,26.1,,00.0,0649.7,31.1
2021-12-29T16:22:00Z,00000200,01000000,0000.58,0000.41,0000.23,-000.36,0000.14,0000.07,0000.04,0000.25,0000.38,19.6,26.1,,00.0,0649.8,31.1
2021-12-29T16:23:00Z,00000200,01000000,0000.36,0000.53,-000.06,0000.49,0000.42,0000.40,0000.00,0000.07,-000.24,19.6,26.1,,00.0,0649.8,31.1
2021-12-29T16:24:00Z,00000200,01000000,0000.63,0000.46,0000.16,-000.45,0000.29,0000.19,-000.20,-000.42,0000.11,19.6,26.1,,00.0,0649.8,31.1
2021-12-29T16:25:00Z,00000200,01000000,0000.37,0000.35,0000.35,0000.56,0000.33,0000.06,0000.04,0000.00,-000.13,19.6,26.1,,00.0,0649.8,31.1
2021-12-29T16:26:00Z,00000200,01000000,0000.60,0000.37,0000.22,0000.17,0000.02,0000.23,0000.09,0000.07,-000.03,19.6,26.1,,00.0,0649.7,31.1
2021-12-29T16:27:00Z,00000200,01000000,0000.58,0000.69,0000.58,0000.04,0000.50,0000.43,0000.26,-000.06,-000.03,19.6,26.1,,00.0,0649.7,31.1
2021-12-29T16:28:00Z,00000200,01000000,0000.56,0000.44,-000.07,-000.25,0000.18,0000.07,-000.35,-000.16,0000.03,19.6,26.1,,00.0,0649.7,31.1
2021-12-29T16:29:00Z,00000200,01000000,0000.55,0000.56,0000.17,0000.04,-000.10,0000.32,-000.01,0000.22,0000.26,19.6,26.1,,00.0,0649.7,31.2
2021-12-29T16:30:00Z,00000200,01000000,0000.85,0000.33,-000.13,0000.33,0000.38,-000.10,-000.01,0000.15,-000.23,19.7,26.1,,00.0,0649.7,31.1
2021-12-29T16:31:00Z,00000200,01000000,0000.81,0000.43,0000.11,0000.11,0000.27,0000.21,0000.01,0000.05,0000.16,19.7,26.1,,00.0,0649.7,31.1
2021-12-29T16:32:00Z,00000200,01000000,0000.95,0000.42,0000.19,-000.02,0000.11,0000.08,0000.20,-000.38,-000.08,19.6,26.1,,00.0,0649.7,31.1
2021-12-29T16:33:00Z,00000200,01000000,0000.05,0000.17,-000.26,0000.58,0000.25,-000.25,0000.34,0000.58,0000.41,19.6,26.1,,00.0,0649.7,31.1
2021-12-29T16:34:00Z,00000200,01000000,-000.14,0000.48,0000.05,-000.06,0000.24,0000.12,-000.05,-000.32,-000.21,19.5,26.1,,00.0,0649.6,31.1
2021-12-29T16:35:00Z,00000200,01000000,0000.97,0000.34,-000.09,0000.69,0000.40,-000.04,0000.04,0000.25,-000.02,19.4,26.0,,00.0,0649.6,31.1
2021-12-29T16:36:00Z,00000200,01000000,-000.09,0000.57,0000.49,-000.35,-000.13,0000.05,0000.42,0000.20,0000.11,19.3,26.0,,00.0,0649.6,31.1
2021-12-29T16:37:00Z,00000200,01000000,0000.87,-000.07,0000.66,0000.20,0000.03,0000.33,0000.20,0000.78,0000.53,19.3,26.0,,00.0,0649.6,31.1
2021-12-29T16:38:00Z,00000200,01000000,0000.28,0000.36,-000.14,0001.01,0000.01,-000.23,0000.47,0000.04,0000.05,19.3,25.9,,00.0,0649.6,31.1
2021-12-29T16:39:00Z,00000200,01000000,0000.81,0000.41,-000.31,0000.78,0000.09,-000.23,0000.21,0000.17,0000.40,19.3,25.9,,00.0,0649.6,31.1
2021-12-29T16:40:00Z,00000200,01000000,0000.42,0000.14,-000.12,0000.25,0000.44,-000.14,0000.07,0000.11,0000.25,19.3,25.9,,00.0,0649.6,31.1
2021-12-29T16:41:00Z,00000200,01000000,0000.35,0000.20,0000.02,0000.39,0000.36,-000.02,0000.31,0000.04,-000.14,19.4,25.9,,00.0,0649.6,31.1
2021-12-29T16:42:00Z,00000200,01000000,0001.05,-000.02,-000.34,0000.12,0000.33,-000.19,0000.32,0000.39,0000.05,19.4,25.9,,00.0,0649.6,31.1
2021-12-29T16:43:00Z,00000200,01000000,0001.00,0000.44,-000.11,0000.75,0000.42,-000.25,0000.17,0000.25,0000.24,19.4,25.9,,00.0,0649.6,31.1
2021-12-29T16:44:00Z,00000200,01000000,0000.66,0000.31,0000.65,-000.62,-000.00,0000.26,0000.18,-000.10,0000.13,19.4,25.9,,00.0,0649.6,31.1
2021-12-29T16:45:00Z,00000200,01000000,0000.48,0000.58,0000.35,0000.54,-000.06,0000.38,0000.07,0000.74,-000.01,19.4,25.9,,00.0,0649.6,31.1
2021-12-29T16:46:00Z,00000200,01000000,0000.93,0000.36,0000.23,0000.24,0000.32,-000.18,-000.13,-000.41,-000.14,19.4,26.0,,00.0,0649.6,31.1
2021-12-29T16:47:00Z,00000200,01000000,0001.07,0000.75,0000.20,0000.07,0000.22,0000.14,0000.36,-000.14,0000.22,19.4,26.0,,00.0,0649.6,31.1
2021-12-29T16:48:00Z,00000200,01000000,-000.12,0000.38,-000.12,-000.01,0000.06,-000.01,0000.32,0000.58,0000.24,19.3,25.9,,00.0,0649.5,31.1
2021-12-29T16:49:00Z,00000200,01000000,0000.82,0000.35,-000.21,0000.63,0000.00,0000.05,0000.15,0000.25,0000.47,19.2,25.9,,00.0,0649.5,31.0
2021-12-29T16:50:00Z,00000200,01000000,0000.72,0000.29,0000.01,0000.60,0000.44,-000.11,-000.36,-000.47,-000.36,19.1,25.8,,00.0,0649.5,31.0
2021-12-29T16:51:00Z,00000200,01000000,0000.80,0000.52,0000.08,0000.37,0000.22,-000.01,0000.40,0000.06,0000.24,19.0,25.8,,00.0,0649.5,31.0
2021-12-29T16:52:00Z,00000200,01000000,0000.36,0000.31,0000.35,-000.36,0000.03,-000.10,0000.50,0000.35,0000.16,19.0,25.7,,00.0,0649.5,31.0
2021-12-29T16:53:00Z,00000200,01000000,0000.65,0000.37,-000.32,-000.26,0000.16,0000.14,-000.06,0000.56,0000.05,19.0,25.7,,00.0,0649.5,31.0
2021-12-29T16:54:00Z,00000200,01000000,-000.20,0000.18,0000.33,0000.80,0000.25,0000.39,0000.44,0000.20,-000.07,19.0,25.7,,00.0,0649.5,31.1
2021-12-29T16:55:00Z,00000200,01000000,-000.11,0000.26,0000.03,-000.32,0000.01,-000.05,0000.55,0000.21,0000.71,19.1,25.7,,00.0,0649.5,31.1
2021-12-29T16:56:00Z,00000200,01000000,0000.54,0000.21,-000.12,-000.19,0000.09,-000.01,0000.21,0000.81,0000.21,19.1,25.7,,00.0,0649.5,31.0
2021-12-29T16:57:00Z,00000200,41000000,,,,,,,0000.82,0000.34,0000.12,19.1,25.7,,00.0,0649.5,31.1
2021-12-29T16:58:00Z,00000200,61000000,,,,,,,-000.27,-000.25,-000.00,18.8,25.8,,00.0,0648.6,31.1
2021-12-29T16:59:00Z,00000200,21010000,,,,,,,-000.30,-000.22,0000.01,18.8,25.9,,00.0,0648.6,31.1
